Weather History for Meriden, CT

Change the Weather History Date:

Friday, August 9, 2013

  Actual Average (KHVN) Record (KHVN)
Temperature  
Mean Temperature 76 °F -  
Max Temperature 79 °F 79 °F 96 °F (1980)
Min Temperature 73 °F 65 °F 55 °F (1989)
Cooling Degree Days 11    
Growing Degree Days 26 (Base 50)    
Moisture  
Dew Point 72 °F    
Average Humidity 92    
Maximum Humidity 96    
Minimum Humidity 87    
Precipitation  
Precipitation 1.03 in - - ()
Sea Level Pressure  
Sea Level Pressure 29.87 in    
Wind  
Wind Speed 7 mph (South)    
Max Wind Speed 15 mph    
Max Gust Speed 24 mph    
Visibility 6 miles    
Events Fog , Rain    
Averages and records for this station are not official NWS values.
T = Trace of Precipitation, MM = Missing Value Source: NWS Daily Summary

Daily Weather History Graph

Daily Weather History Graph

Search for Another Location

Airport:

Trip Planner

Search our weather history database for the weather conditions in past years. The results will help you decide how hot, cold, wet, or windy it might be!

Date:

Astronomy

Aug. 09, 2013 Rise Set
Actual Time 5:54 AM EDT 7:58 PM EDT
Civil Twilight 5:23 AM EDT 8:28 PM EDT
Nautical Twilight 4:46 AM EDT 9:05 PM EDT
Astronomical Twilight 4:05 AM EDT 9:46 PM EDT
Moon 8:40 AM EDT (8/9) 9:03 PM EDT (8/9)
Length of Visible Light 15h 05m
Length of Day
14h 04m
Waxing Crescent, 7% of the Moon is Illuminated
Aug 9
Waxing Crescent
Aug 14
First Quarter
Aug 20
Full
Aug 28
Last Quarter
Sep 5
New

Hourly Weather History & Observations

Time (EDT) Temp. Dew Point Humidity Pressure Visibility Wind Dir Wind Speed Gust Speed Precip Events Conditions
12:50 AM 73.4 °F 69.8 °F 88% 30.03 in 10.0 mi South 8.1 mph - N/A   Scattered Clouds
12:53 AM 73.0 °F 70.0 °F 90% 30.03 in 10.0 mi South 8.1 mph - N/A   Mostly Cloudy
1:45 AM 73.4 °F 69.8 °F 88% 30.02 in 10.0 mi SSE 5.8 mph - N/A   Overcast
1:53 AM 73.9 °F 70.0 °F 87% 30.01 in 10.0 mi SSE 5.8 mph - N/A   Overcast
2:26 AM 73.4 °F 69.8 °F 88% 30.01 in 10.0 mi South 4.6 mph - N/A   Overcast
2:53 AM 73.9 °F 70.0 °F 87% 29.99 in 10.0 mi South 6.9 mph - N/A   Overcast
3:06 AM 73.4 °F 69.8 °F 88% 30.00 in 10.0 mi South 8.1 mph - N/A   Overcast
3:17 AM 73.4 °F 69.8 °F 88% 30.00 in 10.0 mi South 8.1 mph - N/A   Overcast
3:53 AM 73.9 °F 70.0 °F 87% 29.99 in 10.0 mi South 5.8 mph - N/A   Overcast
4:53 AM 73.9 °F 70.0 °F 87% 29.98 in 10.0 mi South 6.9 mph - 0.00 in   Overcast
5:28 AM 73.4 °F 71.6 °F 94% 29.98 in 10.0 mi South 8.1 mph - 0.00 in Rain Light Rain
5:53 AM 73.0 °F 71.1 °F 93% 29.97 in 8.0 mi South 6.9 mph - 0.01 in Rain Light Rain
6:53 AM 73.0 °F 71.1 °F 93% 29.96 in 7.0 mi South 8.1 mph - 0.03 in Rain Light Rain
7:53 AM 73.0 °F 72.0 °F 96% 29.95 in 3.0 mi SSE 4.6 mph - 0.08 in Rain Rain
8:53 AM 73.9 °F 72.0 °F 93% 29.93 in 4.0 mi South 6.9 mph - 0.08 in Rain Rain
9:30 AM 73.4 °F 71.6 °F 94% 29.92 in 4.0 mi South 6.9 mph - 0.05 in Rain Light Rain
9:53 AM 73.9 °F 72.0 °F 93% 29.90 in 5.0 mi SSE 9.2 mph - 0.08 in Rain Light Rain
10:00 AM 73.4 °F 71.6 °F 94% 29.90 in 5.0 mi SSE 6.9 mph - 0.00 in Rain Light Rain
10:50 AM 73.4 °F 71.6 °F 94% 29.89 in 1.8 mi South 9.2 mph - 0.06 in Rain Rain
10:53 AM 73.9 °F 72.0 °F 93% 29.88 in 1.2 mi SSE 8.1 mph - 0.09 in Rain Heavy Rain
11:08 AM 73.4 °F 71.6 °F 94% 29.88 in 3.0 mi South 9.2 mph 18.4 mph 0.04 in Rain Rain
11:53 AM 73.9 °F 72.0 °F 93% 29.85 in 2.0 mi South 12.7 mph 19.6 mph 0.15 in Rain Heavy Rain
12:07 PM 73.4 °F 71.6 °F 94% 29.84 in 6.0 mi South 11.5 mph 20.7 mph 0.01 in Rain Light Rain
12:53 PM 75.0 °F 72.0 °F 90% 29.82 in 9.0 mi South 15.0 mph 24.2 mph 0.01 in   Overcast
1:53 PM 75.0 °F 73.0 °F 94% 29.81 in 6.0 mi South 11.5 mph - 0.00 in   Overcast
2:15 PM 75.2 °F 73.4 °F 94% 29.81 in 1.8 mi South 11.5 mph 21.9 mph 0.06 in Rain Heavy Rain
2:32 PM 75.2 °F 73.4 °F 94% 29.80 in 2.0 mi South 9.2 mph 18.4 mph 0.12 in Rain Rain
2:41 PM 75.2 °F 73.4 °F 94% 29.80 in 1.2 mi South 6.9 mph - 0.18 in Rain Rain
2:47 PM 75.2 °F 73.4 °F 94% 29.81 in 3.0 mi SSW 11.5 mph 16.1 mph 0.18 in Rain Light Rain
2:53 PM 75.0 °F 73.0 °F 94% 29.80 in 6.0 mi South 10.4 mph - 0.18 in Rain Light Rain
3:17 PM 77.0 °F 73.4 °F 89% 29.80 in 6.0 mi South 10.4 mph - 0.00 in   Mostly Cloudy
3:32 PM 77.0 °F 73.4 °F 89% 29.80 in 6.0 mi South 10.4 mph 17.3 mph 0.00 in   Mostly Cloudy
3:45 PM 77.0 °F 73.4 °F 89% 29.79 in 7.0 mi South 9.2 mph - 0.00 in Rain Light Rain
3:53 PM 77.0 °F 73.9 °F 90% 29.79 in 5.0 mi South 9.2 mph - 0.00 in Rain Light Rain
4:36 PM 78.8 °F 75.2 °F 89% 29.80 in 7.0 mi South 4.6 mph - 0.00 in   Overcast
4:53 PM 78.1 °F 75.0 °F 90% 29.80 in 6.0 mi Calm Calm - 0.00 in   Overcast
5:13 PM 78.8 °F 75.2 °F 89% 29.80 in 6.0 mi Calm Calm - N/A   Mostly Cloudy
5:53 PM 79.0 °F 75.0 °F 88% 29.80 in 6.0 mi SSE 4.6 mph - N/A   Partly Cloudy
6:50 PM 77.0 °F 75.2 °F 94% 29.80 in 2.0 mi Calm Calm - 0.02 in Rain Rain
6:53 PM 77.0 °F 73.9 °F 90% 29.80 in 2.5 mi SSE 3.5 mph - 0.02 in Rain Rain
7:02 PM 77.0 °F 73.4 °F 89% 29.80 in 4.0 mi South 4.6 mph - 0.00 in Rain Light Rain
7:30 PM 75.2 °F 73.4 °F 94% 29.82 in 2.0 mi SSW 5.8 mph - 0.04 in Rain Heavy Rain
7:37 PM 75.2 °F 73.4 °F 94% 29.82 in 1.2 mi South 8.1 mph - 0.06 in Rain Rain
7:46 PM 75.2 °F 73.4 °F 94% 29.82 in 0.2 mi Calm Calm - 0.30 in Fog , Rain Heavy Rain
7:49 PM 75.2 °F 73.4 °F 94% 29.82 in 0.5 mi SE 4.6 mph - 0.30 in Fog , Rain Heavy Rain
7:53 PM 75.0 °F 73.9 °F 96% 29.82 in 0.5 mi SSE 3.5 mph - 0.30 in Fog , Rain Light Rain
7:55 PM 75.2 °F 73.4 °F 94% 29.82 in 1.5 mi Calm Calm - 0.00 in Rain Light Rain
7:57 PM 75.2 °F 73.4 °F 94% 29.82 in 3.0 mi SSE 3.5 mph - 0.00 in Rain Light Rain
8:04 PM 75.2 °F 73.4 °F 94% 29.82 in 4.0 mi South 6.9 mph - 0.00 in Rain Light Rain
8:15 PM 75.2 °F 73.4 °F 94% 29.81 in 8.0 mi South 5.8 mph - 0.00 in Rain Light Rain
8:53 PM 75.0 °F 72.0 °F 90% 29.81 in 8.0 mi South 5.8 mph - 0.00 in   Overcast
9:53 PM 73.9 °F 72.0 °F 93% 29.82 in 7.0 mi SW 3.5 mph - N/A   Clear
10:53 PM 73.9 °F 71.1 °F 91% 29.83 in 7.0 mi Calm Calm - N/A   Clear
11:53 PM 73.9 °F 71.1 °F 91% 29.83 in 8.0 mi WNW 5.8 mph - N/A   Clear